Location: Gombori
(14.9797°N, 2.9419°W)
Time: 01:33:35
(UTC+00:00)

Meteor 2-13 Rocket - Pass Details

Date: 09 December 2021
Orbit: 936 x 957 km, 82.5° (Epoch: 24 January)

Event Time Altitude Azimuth Distance (km) Brightness Sun altitude
Rises 04:24:37 0° 192° (SSW) 3,617 7.6 -28.3°
Reaches altitude 10° 04:27:09 10° 196° (SSW) 2,670 6.8 -27.8°
Enters shadow 04:31:42 47° 226° (SW) 1,231 4.8 -26.7°
